SHT15D EGJJ-EGLL

Flight info

Callsign SHT15D
Flight time 0h 34m
Altitude 21000
Route ORIST L982 ERGUM/N0377F230 L982 ROXOG
Aircraft A20N/M-SDGHIJ1LRWXY/SB1

Departure

Time 2026-05-06 06:49
Airport Jersey Airport (EGJJ)

Arrival

Time 2026-05-06 07:23
Airport London Heathrow Airport (EGLL)
Time Latitude Longitude Altitude Speed Heading
2026-05-06 06:40 49.20562 -2.19637 284 ft 0 kts 159°
2026-05-06 06:41 49.20563 -2.19638 284 ft 1 kts 158°
2026-05-06 06:41 49.20585 -2.19651 284 ft 4 kts 160°
2026-05-06 06:41 49.20611 -2.19664 284 ft 4 kts 167°
2026-05-06 06:41 49.20637 -2.19669 284 ft 4 kts 189°
2026-05-06 06:42 49.20649 -2.19664 284 ft 0 kts 209°
2026-05-06 06:46 49.20633 -2.19681 288 ft 9 kts 219°
2026-05-06 06:46 49.20610 -2.19790 284 ft 14 kts 265°
2026-05-06 06:46 49.20577 -2.19922 285 ft 9 kts 196°
2026-05-06 06:46 49.20524 -2.19955 284 ft 11 kts 246°
2026-05-06 06:47 49.20542 -2.20113 284 ft 20 kts 286°
2026-05-06 06:47 49.20583 -2.20316 287 ft 22 kts 286°
2026-05-06 06:47 49.20619 -2.20511 284 ft 19 kts 284°
2026-05-06 06:47 49.20633 -2.20675 284 ft 11 kts 298°
2026-05-06 06:48 49.20701 -2.20661 286 ft 9 kts 65°
2026-05-06 06:48 49.20704 -2.20638 283 ft 3 kts 79°
2026-05-06 06:48 49.20740 -2.20237 282 ft 95 kts 83°
2026-05-06 06:48 49.20854 -2.18803 665 ft 155 kts 84°
2026-05-06 06:49 49.20983 -2.17096 1701 ft 168 kts 84°
2026-05-06 06:49 49.21130 -2.15240 2802 ft 183 kts 83°
2026-05-06 06:49 49.21307 -2.13233 3817 ft 197 kts 82°
2026-05-06 06:49 49.21496 -2.11069 4933 ft 211 kts 81°
2026-05-06 06:50 49.21881 -2.08825 6007 ft 231 kts 60°
2026-05-06 06:50 49.23009 -2.06975 6925 ft 255 kts 32°
2026-05-06 06:50 49.24727 -2.06042 8023 ft 269 kts
2026-05-06 06:50 49.26608 -2.05745 9375 ft 274 kts
2026-05-06 06:51 49.28541 -2.05503 10606 ft 287 kts
2026-05-06 06:51 49.30612 -2.05132 11361 ft 313 kts
2026-05-06 06:51 49.32728 -2.04621 12037 ft 334 kts
2026-05-06 06:51 49.35042 -2.03969 13127 ft 341 kts 10°
2026-05-06 06:52 49.37393 -2.03270 14288 ft 346 kts 10°
2026-05-06 06:52 49.39773 -2.02557 15383 ft 352 kts 10°
2026-05-06 06:52 49.42159 -2.01844 16433 ft 357 kts 10°
2026-05-06 06:52 49.44613 -2.01112 17445 ft 362 kts 10°
2026-05-06 06:53 49.47103 -2.00371 18439 ft 367 kts 10°
2026-05-06 06:53 49.49630 -1.99620 19342 ft 373 kts 10°
2026-05-06 06:53 49.52199 -1.98857 20237 ft 379 kts 10°
2026-05-06 06:53 49.54814 -1.98080 20715 ft 385 kts 10°
2026-05-06 06:54 49.57450 -1.97295 20902 ft 387 kts 10°
2026-05-06 06:54 49.60096 -1.96506 20959 ft 388 kts 11°
2026-05-06 06:54 49.62709 -1.95724 20961 ft 388 kts 11°
2026-05-06 06:54 49.65356 -1.94934 20962 ft 388 kts 10°
2026-05-06 06:55 49.68005 -1.94142 20961 ft 388 kts 11°
2026-05-06 06:55 49.70653 -1.93350 20961 ft 388 kts 11°
2026-05-06 06:55 49.73302 -1.92556 20962 ft 388 kts 10°
2026-05-06 06:55 49.75949 -1.91762 20970 ft 388 kts 10°
2026-05-06 06:56 49.78599 -1.90966 20972 ft 388 kts 10°
2026-05-06 06:56 49.81247 -1.90170 20971 ft 388 kts 10°
2026-05-06 06:56 49.83898 -1.89373 20971 ft 388 kts 10°
2026-05-06 06:56 49.86512 -1.88586 20972 ft 388 kts 10°
2026-05-06 06:57 49.89164 -1.87787 20971 ft 388 kts 11°
2026-05-06 06:57 49.91810 -1.86987 20971 ft 388 kts 11°
2026-05-06 06:57 49.94458 -1.86185 20971 ft 388 kts 11°
2026-05-06 06:57 49.97108 -1.85382 20971 ft 388 kts 11°
2026-05-06 06:58 49.99670 -1.84355 20971 ft 388 kts 18°
2026-05-06 06:58 50.02222 -1.82748 20971 ft 389 kts 25°
2026-05-06 06:58 50.04632 -1.80826 20971 ft 389 kts 26°
2026-05-06 06:58 50.07009 -1.78940 20971 ft 389 kts 26°
2026-05-06 06:59 50.09422 -1.77033 20971 ft 389 kts 26°
2026-05-06 06:59 50.11804 -1.75039 20971 ft 389 kts 31°
2026-05-06 06:59 50.14014 -1.72597 20971 ft 390 kts 39°
2026-05-06 06:59 50.16092 -1.69882 20973 ft 390 kts 39°
2026-05-06 07:00 50.18178 -1.67177 20980 ft 390 kts 39°
2026-05-06 07:00 50.20267 -1.64477 20980 ft 390 kts 39°
2026-05-06 07:00 50.22356 -1.61773 20980 ft 390 kts 39°
2026-05-06 07:00 50.24457 -1.59082 20978 ft 390 kts 37°
2026-05-06 07:01 50.26728 -1.56774 20981 ft 390 kts 28°
2026-05-06 07:01 50.29156 -1.55034 20981 ft 389 kts 20°
2026-05-06 07:01 50.31731 -1.53743 20980 ft 389 kts 16°
2026-05-06 07:01 50.34316 -1.52488 20980 ft 389 kts 17°
2026-05-06 07:02 50.36898 -1.51220 20980 ft 389 kts 17°
2026-05-06 07:02 50.39481 -1.49947 20982 ft 389 kts 17°
2026-05-06 07:02 50.42063 -1.48676 20989 ft 389 kts 17°
2026-05-06 07:02 50.44647 -1.47404 20989 ft 389 kts 17°
2026-05-06 07:03 50.47231 -1.46133 20989 ft 389 kts 17°
2026-05-06 07:03 50.49782 -1.44874 20989 ft 390 kts 17°
2026-05-06 07:03 50.52366 -1.43589 20988 ft 390 kts 18°
2026-05-06 07:03 50.54839 -1.41978 20956 ft 391 kts 25°
2026-05-06 07:04 50.57261 -1.39917 20727 ft 390 kts 28°
2026-05-06 07:04 50.59631 -1.37874 20477 ft 388 kts 28°
2026-05-06 07:04 50.61995 -1.35845 20228 ft 386 kts 27°
2026-05-06 07:04 50.64343 -1.33830 19979 ft 385 kts 27°
2026-05-06 07:05 50.66689 -1.31813 19727 ft 383 kts 27°
2026-05-06 07:05 50.69025 -1.29801 19478 ft 382 kts 27°
2026-05-06 07:05 50.71319 -1.27825 19231 ft 380 kts 27°
2026-05-06 07:05 50.73633 -1.25829 18985 ft 379 kts 27°
2026-05-06 07:06 50.75939 -1.23832 18731 ft 377 kts 28°
2026-05-06 07:06 50.78154 -1.21617 18355 ft 377 kts 32°
2026-05-06 07:06 50.80340 -1.19355 17837 ft 373 kts 32°
2026-05-06 07:06 50.82492 -1.17134 17320 ft 366 kts 32°
2026-05-06 07:07 50.84602 -1.14956 16814 ft 358 kts 32°
2026-05-06 07:07 50.86667 -1.12826 16317 ft 351 kts 32°
2026-05-06 07:07 50.88691 -1.10736 15829 ft 344 kts 32°
2026-05-06 07:07 50.90679 -1.08678 15353 ft 338 kts 32°
2026-05-06 07:08 50.92630 -1.06656 14867 ft 332 kts 32°
2026-05-06 07:08 50.94522 -1.04693 14426 ft 332 kts 32°
2026-05-06 07:08 50.96562 -1.02579 13935 ft 363 kts 32°
2026-05-06 07:08 50.98701 -1.00350 13417 ft 370 kts 32°
2026-05-06 07:09 51.00717 -0.97900 12943 ft 362 kts 41°
2026-05-06 07:09 51.02441 -0.95063 12470 ft 352 kts 47°
2026-05-06 07:09 51.04041 -0.92192 11996 ft 342 kts 47°
2026-05-06 07:09 51.05607 -0.89406 11522 ft 334 kts 47°
2026-05-06 07:10 51.07138 -0.86687 11047 ft 327 kts 46°
2026-05-06 07:10 51.08636 -0.84022 10567 ft 320 kts 46°
2026-05-06 07:10 51.10099 -0.81412 10270 ft 309 kts 46°
2026-05-06 07:10 51.11493 -0.78918 10130 ft 294 kts 46°
2026-05-06 07:11 51.12801 -0.76578 10005 ft 280 kts 46°
2026-05-06 07:11 51.14063 -0.74323 9894 ft 266 kts 46°
2026-05-06 07:11 51.15270 -0.72161 9698 ft 258 kts 46°
2026-05-06 07:11 51.16447 -0.70053 9496 ft 250 kts 46°
2026-05-06 07:12 51.17608 -0.67972 9375 ft 253 kts 45°
2026-05-06 07:12 51.18775 -0.65878 9160 ft 251 kts 45°
2026-05-06 07:12 51.19924 -0.63813 8916 ft 249 kts 45°
2026-05-06 07:12 51.21064 -0.61767 8677 ft 250 kts 45°
2026-05-06 07:13 51.22206 -0.59710 8438 ft 246 kts 45°
2026-05-06 07:13 51.23391 -0.57745 8199 ft 245 kts 33°
2026-05-06 07:13 51.24922 -0.56752 7944 ft 236 kts
2026-05-06 07:13 51.26501 -0.57149 7672 ft 230 kts 335°
2026-05-06 07:14 51.27912 -0.58307 7400 ft 227 kts 332°
2026-05-06 07:14 51.29229 -0.59654 7124 ft 225 kts 320°
2026-05-06 07:14 51.30381 -0.61337 6788 ft 226 kts 317°
2026-05-06 07:14 51.31529 -0.63039 6401 ft 230 kts 317°
2026-05-06 07:15 51.32722 -0.64819 5996 ft 233 kts 317°
2026-05-06 07:15 51.33893 -0.66577 5601 ft 235 kts 317°
2026-05-06 07:15 51.35086 -0.68386 5201 ft 237 kts 317°
2026-05-06 07:15 51.36278 -0.70222 4802 ft 239 kts 317°
2026-05-06 07:16 51.37470 -0.72087 4401 ft 240 kts 317°
2026-05-06 07:16 51.38657 -0.73973 3999 ft 241 kts 317°
2026-05-06 07:16 51.39823 -0.75855 3616 ft 234 kts 317°
2026-05-06 07:16 51.40930 -0.77681 3364 ft 221 kts 317°
2026-05-06 07:17 51.42011 -0.79249 3108 ft 204 kts 336°
2026-05-06 07:17 51.43284 -0.79722 3002 ft 177 kts
2026-05-06 07:17 51.44424 -0.79220 3003 ft 173 kts 22°
2026-05-06 07:17 51.45528 -0.78532 3017 ft 166 kts 24°
2026-05-06 07:18 51.46542 -0.77653 2994 ft 167 kts 37°
2026-05-06 07:18 51.47262 -0.76198 2999 ft 170 kts 62°
2026-05-06 07:18 51.47573 -0.74359 2999 ft 173 kts 78°
2026-05-06 07:18 51.47659 -0.72423 2953 ft 175 kts 84°
2026-05-06 07:19 51.47667 -0.70518 2758 ft 169 kts 85°
2026-05-06 07:19 51.47676 -0.68664 2537 ft 167 kts 85°
2026-05-06 07:19 51.47684 -0.66787 2320 ft 168 kts 85°
2026-05-06 07:19 51.47689 -0.64914 2089 ft 166 kts 86°
2026-05-06 07:20 51.47693 -0.63145 1874 ft 150 kts 86°
2026-05-06 07:20 51.47693 -0.61561 1726 ft 131 kts 86°
2026-05-06 07:20 51.47708 -0.60033 1549 ft 137 kts 85°
2026-05-06 07:20 51.47711 -0.58550 1336 ft 135 kts 86°
2026-05-06 07:21 51.47717 -0.57067 1153 ft 131 kts 88°
2026-05-06 07:21 51.47723 -0.55568 981 ft 134 kts 87°
2026-05-06 07:21 51.47728 -0.54083 800 ft 131 kts 87°
2026-05-06 07:21 51.47735 -0.52636 629 ft 133 kts 87°
2026-05-06 07:22 51.47744 -0.51149 435 ft 133 kts 87°
2026-05-06 07:22 51.47743 -0.49676 245 ft 132 kts 87°
2026-05-06 07:22 51.47750 -0.48204 115 ft 132 kts 87°
2026-05-06 07:22 51.47763 -0.46909 88 ft 90 kts 90°
2026-05-06 07:23 51.47764 -0.46375 89 ft 25 kts 90°
2026-05-06 07:23 51.47725 -0.46175 90 ft 13 kts 142°
2026-05-06 07:23 51.47674 -0.46113 86 ft 0 kts 143°
2026-05-06 07:23 51.47672 -0.46111 86 ft 0 kts 143°
2026-05-06 07:24 51.47623 -0.46063 86 ft 10 kts 163°
2026-05-06 07:24 51.47536 -0.46106 90 ft 15 kts 224°
2026-05-06 07:24 51.47514 -0.46238 90 ft 13 kts 264°
2026-05-06 07:25 51.47512 -0.46402 90 ft 16 kts 271°
2026-05-06 07:25 51.47514 -0.46581 87 ft 18 kts 271°
2026-05-06 07:25 51.47514 -0.46767 87 ft 17 kts 269°